This demonstration page uses our WeatherBlox Daily Observations layout. Learn more.

38.88101, -77.10428

Hourly Observations for June 11, 2017

Temp ( °F °C ) Dew Point ( °F °C ) Humidity (%) Winds ( mph kmh ) Pressure ( in mb ) Visibility ( mi km ) Precip ( " mm )
12:52 am 00:52 Partly Cloudy 75 23.9 67 19.4 76 76 S 8 13 30.06 1018 10 16.09344 0 0
1:52 am 01:52 Mostly Clear 73 22.8 66 18.9 79 79 SSW 5 7 30.06 1018 10 16.09344 0 0
2:52 am 02:52 Clear 73 22.8 65 18.3 76 76 S 5 7 30.06 1018 10 16.09344 0 0
3:52 am 03:52 Clear 73 22.8 65 18.3 76 76 S 3 6 30.06 1018 10 16.09344 0 0
4:52 am 04:52 Partly Cloudy 73 22.8 67 19.4 81 81 S 5 7 30.06 1018 10 16.09344 0 0
5:52 am 05:52 Mostly Sunny 71 21.7 67 19.4 87 87 Calm 30.09 1019 10 16.09344 0 0
6:52 am 06:52 Sunny 73 22.8 66 18.9 79 79 SSW 3 6 30.12 1020 10 16.09344 0 0
7:52 am 07:52 Sunny 75 23.9 67 19.4 76 76 S 5 7 30.12 1020 10 16.09344 0 0
8:52 am 08:52 Sunny 76 24.4 67 19.4 74 74 SSE 6 9 30.15 1021 10 16.09344 0 0
9:52 am 09:52 Sunny 81 27.2 67 19.4 62 62 SSE 7 11 30.15 1021 10 16.09344 0 0
10:52 am 10:52 Sunny 89 31.7 60 15.6 38 38 N 14 22 30.12 1020 10 16.09344 0 0
11:52 am 11:52 Sunny 91 32.8 61 16.1 37 37 N 14 22 30.12 1020 10 16.09344 0 0
12:52 pm 12:52 Sunny 91 32.8 61 16.1 37 37 N 5 7 30.12 1020 10 16.09344 0 0
1:52 pm 13:52 Sunny 91 32.8 61 16.1 37 37 ESE 7 11 30.09 1019 10 16.09344 0 0
2:52 pm 14:52 Mostly Sunny 92 33.3 62 16.7 37 37 SSW 14 22 30.06 1018 10 16.09344 0 0
3:52 pm 15:52 Partly Cloudy 92 33.3 63 17.2 38 38 S 10 17 30.06 1018 10 16.09344 0 0
4:52 pm 16:52 Mostly Sunny 92 33.3 63 17.2 38 38 SSW 9 15 30.06 1018 10 16.09344 0 0
5:52 pm 17:52 Partly Cloudy 90 32.2 62 16.7 39 39 SSW 13 20 30.06 1018 10 16.09344 0 0
6:52 pm 18:52 Partly Cloudy 90 32.2 62 16.7 39 39 SSW 14 22 30.03 1017 10 16.09344 0 0
7:52 pm 19:52 Partly Cloudy 86 30 68 20 55 55 S 8 13 30.03 1017 10 16.09344 0 0
8:52 pm 20:52 Mostly Clear 83 28.3 69 20.6 63 63 S 7 11 30.03 1017 10 16.09344 0 0
9:52 pm 21:52 Mostly Clear 81 27.2 71 21.7 72 72 S 8 13 30.06 1018 10 16.09344 0 0
10:52 pm 22:52 Clear 80 26.7 70 21.1 71 71 S 9 15 30.06 1018 10 16.09344 0 0
11:52 pm 23:52 Mostly Clear 78 25.6 70 21.1 76 76 SSW 7 11 30.06 1018 10 16.09344 0 0

Powered by AerisWeather